Regional Weather Roundup
Issued by NWS Jackson, KY

Home | Current Version | Previous Version | Text Only | Print | Product List | Glossary Off
Versions: 1 2 3 4 5 6 7 8 9 10 11 12 13 14 15 16 17 18 19 20 21 22 23 24 25 26 27 28 29 30 31 32 33 34 35 36 37 38 39 40 41 42 43 44 45 46 47 48 49 50

000
ASUS43 KJKL 261510
RWRJKL

EAST KENTUCKY HOURLY WEATHER ROUNDUP
NATIONAL WEATHER SERVICE JACKSON KY
1100 AM EDT TUE MAY 26 2015

NOTE: "FAIR" INDICATES FEW OR NO CLOUDS BELOW 12,000 FEET WITH
NO SIGNIFICANT WEATHER AND/OR OBSTRUCTIONS TO VISIBILITY.

* THESE REPORTS ARE NOT UNDER NWS QUALITY CONTROL AND MAY NOT
  REPORT WEATHER SUCH AS PRECIPITATION AND FOG.

KYZ079-080-083-085-087-088-110-112-115-119-120-261600
...EASTERN KENTUCKY...

CITY           SKY/WX    TMP DP  RH WIND       PRES   REMARKS
JACKSON        PTSUNNY   77  65  66 VRB3      30.20S
LONDON         PTSUNNY   78  63  59 S10       30.18F
SOMERSET*      PTSUNNY   77  64  65 S10       30.17S
MONTICELLO*    SUNNY     79  68  69 S15G23    30.17F
MIDDLESBORO*   MOSUNNY   75  67  75 S5        30.22S
HARLAN APT*    PTSUNNY   77  63  61 MISG      30.22F
HAZARD APT*    SUNNY     79  64  61 S8        30.20S
BLACK MTN*       N/A     66  63  88 SE2         N/A
PIKEVILLE APT* MOSUNNY   75  64  69 SE5       30.21F
BIG SANDY*     MOSUNNY   78  64  62 S9        30.20S
MOREHEAD APT*  PTSUNNY   75  66  73 S8G16     30.18F
$$

KYZ035-036-041-042-044-050-067-078-099-261600
...CENTRAL KENTUCKY...

CITY           SKY/WX    TMP DP  RH WIND       PRES   REMARKS
MT STERLING*   MOSUNNY   77  68  73 SW10G20   30.16F
FLEMING/MASON* PTSUNNY   77  66  69 S14       30.15F
DANVILLE*      CLOUDY    77  66  69 S12G21    30.14F
RICHMOND*      MOSUNNY   79  64  61 S13G21    30.14F
LEXINGTON      MOSUNNY   78  68  71 S17G23    30.12F
FRANKFORT      MOSUNNY   78  66  66 S15       30.10F
$$

KYZ091>093-OHZ055-061-077-WVZ005-015-034-035-042-261600
...SOUTHERN OHIO/WEST VIRGINIA...

CITY           SKY/WX    TMP DP  RH WIND       PRES   REMARKS
COVINGTON      MOSUNNY   78  65  63 S12G21    30.09F
COLUMBUS       PTSUNNY   77  65  66 S9        30.13F
DAYTON         MOSUNNY   78  65  63 S15       30.09F
WILMINGTON     MOSUNNY   78  62  57 S15       30.11F
HUNTINGTON     MOSUNNY   79  66  64 S6        30.16F
CHARLESTON     CLOUDY    76  62  62 S5        30.20F
PINEVILLE*     PTSUNNY   76  66  71 MISG      30.30F
BECKLEY        CLOUDY    73  60  63 S7        30.30S
BLUEFIELD      LGT RAIN  71  61  70 S6        30.32F
$$

VAZ002-007-008-TNZ017-027-036-066-071-261600
...SOUTHWEST VIRGINIA/EAST TENNESSEE...

CITY           SKY/WX    TMP DP  RH WIND       PRES   REMARKS
WISE*          CLOUDY    72  59  64 S10G16    30.30R
JONESVILLE*    PTSUNNY   77  66  69 SE7       30.25F
ABINGDON*      MOSUNNY   78  65  63 S6        30.28F
BRISTOL        PTSUNNY   77  64  64 S7        30.25F
KNOXVILLE      PTSUNNY   77  65  66 SW3       30.19F
OAK RIDGE      MOSUNNY   77  67  71 S6        30.21F
CROSSVILLE     MOSUNNY   73  65  75 S16G24    30.21S
NASHVILLE      CLOUDY    77  69  76 S18G26    30.10S
$$

...KEY TO REMARKS...
VSB - VISIBILITY IN MILES
WCI - WIND CHILL INDEX
HX  - HEAT INDEX

$$


USA.gov is the U.S. government's official web portal to all federal, state and local government web resources and services.